Theta_e
339 345 346 345 345 347 347 348 349 348 349 350 349 349 347 347 350 350 346 343 342 344 344 344 345 347 348 344 344 349 350 350 350 345 342 337 335 343 348 349 351 349 347 347 349 350 346 339 334 333 334 336 336 339 341 342 343 343 343 340 335 331 327 324 323 322 323 323 324 323 322 324 332 336
341 345 347 345 344 344 346 347 348 348 348 348 348 349 348 347 350 351 350 348 345 345 347 350 350 348 349 348 347 348 348 350 349 347 347 340 337 345 350 350 353 351 348 347 349 350 347 343 339 337 335 333 334 336 339 341 342 342 343 342 339 334 329 325 323 323 323 323 324 324 322 324 331 336
340 344 347 348 347 345 344 344 347 347 347 346 346 347 348 348 348 349 350 350 348 347 348 350 351 350 350 351 349 348 348 348 346 346 347 341 338 346 350 350 352 351 348 348 349 350 348 346 344 340 338 338 337 337 337 339 341 340 341 342 342 338 332 326 324 323 323 323 324 324 323 323 329 335
339 343 345 348 350 349 346 344 346 348 349 348 347 346 346 347 346 345 346 348 348 348 349 348 348 349 351 351 351 350 349 346 342 341 342 339 339 345 348 350 351 349 348 349 350 350 349 349 347 343 342 343 344 343 340 338 338 339 339 341 342 341 336 328 324 323 323 323 324 324 323 323 327 334
341 346 347 347 349 350 347 345 346 350 351 350 348 346 343 342 341 340 341 343 343 344 346 347 346 346 348 348 348 349 347 345 342 339 338 339 340 340 341 345 349 348 348 350 351 350 349 350 349 345 343 345 346 348 346 341 338 337 337 339 340 341 339 331 326 323 323 323 324 324 324 323 325 332
344 349 351 349 348 347 344 341 342 348 352 351 349 348 347 345 343 341 339 337 336 336 338 340 340 339 340 342 343 345 345 345 344 339 339 341 342 341 337 338 342 343 346 351 351 349 349 350 349 345 343 345 346 348 349 346 341 336 335 336 337 339 340 335 329 325 323 323 324 324 324 323 324 330
344 348 351 350 348 346 342 338 336 339 346 349 351 351 351 351 350 347 343 338 336 337 337 336 334 333 335 338 341 343 342 340 338 335 338 341 342 346 343 338 337 337 340 345 345 345 349 350 346 344 343 344 346 348 348 348 345 339 335 335 335 336 339 338 333 327 324 323 324 324 325 323 323 328
344 345 347 347 347 346 343 340 337 337 339 343 349 352 352 351 351 350 348 345 344 347 347 344 339 336 335 335 338 339 335 333 334 337 341 342 343 346 345 342 340 337 334 334 336 342 347 347 344 344 345 345 346 347 347 347 346 343 339 336 334 334 337 338 336 331 326 323 323 324 325 324 322 325
344 344 344 345 345 344 344 342 341 343 343 342 346 351 352 351 350 350 350 349 349 350 350 347 342 338 336 334 334 333 331 333 337 340 343 344 346 347 345 343 342 340 335 331 331 336 341 344 345 346 347 348 347 346 345 345 346 346 343 340 337 334 334 336 337 334 329 325 323 323 324 325 323 323
344 343 342 342 342 342 343 343 342 345 348 346 343 344 348 350 350 350 350 350 350 350 350 348 343 338 335 334 332 331 333 340 345 343 343 345 347 347 346 345 344 342 339 332 328 331 334 340 346 350 352 351 347 345 344 343 346 348 346 344 342 337 334 334 336 336 332 327 323 323 324 325 324 322
342 342 342 341 341 340 340 340 340 342 345 347 345 341 342 346 348 350 350 350 350 349 349 348 343 338 334 333 333 331 334 344 350 348 346 347 348 348 349 349 346 344 342 334 328 329 331 336 344 350 353 350 345 344 343 343 347 349 349 347 346 343 338 333 333 335 334 329 324 323 324 324 324 322
341 341 341 341 341 341 340 339 340 341 342 344 343 340 339 341 343 345 347 348 349 348 348 347 343 340 336 333 333 333 337 347 350 349 350 351 350 351 351 350 349 347 344 337 331 329 329 333 338 343 345 343 342 343 343 344 348 351 351 349 348 347 342 335 333 334 334 332 327 323 323 324 325 323
341 340 340 340 340 342 345 345 344 344 344 343 342 340 340 340 340 342 343 345 346 347 348 346 344 344 340 334 335 339 344 348 347 346 352 354 352 350 350 350 350 348 345 341 335 330 329 331 334 336 337 338 340 343 343 346 350 352 352 351 349 350 346 340 337 335 334 333 329 324 323 324 325 324
340 341 343 343 343 345 348 350 349 348 347 347 346 344 342 340 340 340 341 342 343 343 343 341 340 341 337 332 334 337 339 340 340 343 350 352 351 351 350 348 348 347 346 343 336 329 327 331 334 334 335 337 341 343 344 346 350 352 353 351 350 350 348 344 341 337 334 334 332 326 324 324 324 324
338 341 346 348 347 348 348 348 348 348 347 346 345 344 343 341 339 338 337 337 337 338 339 338 338 338 334 330 331 332 332 333 338 346 352 353 353 353 351 349 348 346 344 341 335 328 327 330 333 335 336 339 342 343 344 346 349 351 352 351 350 350 349 346 344 341 335 334 333 329 324 324 324 325
334 337 341 344 346 348 349 348 347 346 345 345 344 344 343 343 342 341 339 337 335 334 334 334 334 334 333 331 331 331 331 333 337 346 353 355 354 352 349 346 344 340 338 338 335 330 327 329 332 334 335 340 344 344 344 347 350 351 351 351 350 350 349 347 346 343 338 335 334 331 326 324 324 325
331 332 333 335 336 339 343 346 346 346 346 345 346 345 345 345 344 344 343 342 341 338 336 334 333 332 332 332 331 331 331 333 335 339 343 345 345 345 343 340 337 335 335 336 336 333 329 329 332 333 333 339 346 346 345 346 349 349 350 350 350 350 349 348 347 345 341 337 335 332 328 325 324 325
330 330 331 331 330 330 332 335 339 342 343 343 343 344 346 346 346 346 345 345 345 343 342 339 336 333 332 331 331 331 331 333 334 334 335 336 337 339 338 336 335 335 333 334 338 339 332 330 334 333 332 338 345 345 345 346 347 348 348 349 349 349 350 349 347 346 344 342 338 334 329 325 324 324
335 332 332 333 332 331 329 328 329 332 334 335 336 338 340 342 344 345 346 346 345 344 342 339 335 332 330 329 329 329 330 331 332 333 334 335 336 336 335 335 335 335 333 334 340 342 335 331 335 334 332 337 341 342 345 347 347 347 348 348 348 349 350 349 347 346 346 345 342 338 332 327 324 324
344 339 336 336 336 336 335 332 330 331 332 335 336 337 336 337 339 340 340 340 341 340 338 335 332 330 329 329 329 328 330 332 334 336 336 335 337 336 335 337 336 335 333 333 337 341 337 331 334 335 333 337 340 342 346 348 348 348 348 349 349 350 350 349 348 347 347 346 345 342 337 330 325 324
349 347 344 341 340 339 338 337 337 337 339 340 341 340 339 338 338 336 335 335 337 337 335 333 331 329 329 329 329 329 330 332 337 343 342 340 340 340 339 340 339 336 335 332 336 342 340 332 333 336 336 339 342 345 348 349 350 349 349 350 351 350 350 349 348 348 347 346 346 344 340 334 327 324
350 350 350 348 345 343 340 338 338 339 340 341 340 339 338 337 335 331 330 332 333 332 333 334 333 331 329 329 329 330 331 333 339 346 346 343 345 346 345 345 344 342 338 332 335 342 340 334 335 338 338 340 342 345 348 350 350 350 349 350 351 350 350 349 349 348 348 347 346 344 341 337 330 325
350 350 351 351 350 349 347 344 341 339 338 338 337 337 336 334 331 327 327 329 329 329 330 332 333 332 331 331 332 333 334 336 339 342 341 341 345 348 347 346 348 347 341 331 334 340 338 336 338 339 340 343 345 346 349 350 350 350 350 350 351 350 350 349 349 349 348 347 346 344 342 338 332 327
351 351 351 351 351 351 351 350 348 346 343 341 339 337 337 337 337 335 332 331 331 331 332 333 334 334 333 334 335 336 335 336 336 335 335 337 342 346 347 347 349 349 341 331 334 341 340 338 339 339 341 345 347 348 350 351 351 350 350 350 351 350 350 349 349 349 349 348 346 344 342 338 335 330
352 352 352 352 353 352 352 352 352 351 349 348 346 343 343 345 347 346 342 340 340 339 340 341 341 341 339 338 338 337 336 335 334 333 332 333 336 340 343 344 346 347 340 332 336 342 342 342 342 342 342 343 344 346 350 351 351 350 351 351 351 351 350 350 350 349 349 348 346 344 342 339 337 335
354 354 353 353 354 354 354 354 354 353 352 351 350 349 348 349 349 348 346 346 345 345 346 347 347 346 345 343 342 341 340 338 337 335 333 333 334 337 339 342 345 345 340 336 340 345 347 348 348 347 345 344 343 345 349 350 349 350 351 351 350 350 350 350 350 349 349 348 346 344 342 340 339 338
354 353 354 354 354 355 355 355 355 356 355 355 353 352 352 351 351 350 350 350 349 349 350 350 350 350 349 347 344 343 343 343 343 340 339 339 340 341 342 343 345 345 342 341 346 351 352 352 352 350 349 347 346 346 347 347 347 348 348 349 349 350 351 350 350 350 349 348 346 345 343 341 340 340
353 353 353 353 354 355 355 356 356 356 356 356 356 356 355 355 355 354 354 353 353 353 353 353 352 353 353 351 346 342 344 346 347 346 345 346 348 349 349 348 348 347 346 346 349 351 352 352 352 351 351 350 349 348 348 348 348 346 347 348 349 350 350 350 350 350 350 349 347 345 343 342 341 341
353 353 353 352 353 354 355 356 356 356 355 356 357 357 357 357 357 357 357 356 356 355 356 355 355 355 355 354 351 348 348 349 349 349 348 348 349 351 353 354 354 352 350 349 349 349 350 351 351 351 352 352 351 351 350 350 350 349 349 348 348 349 349 350 350 350 350 349 348 346 344 342 341 341
353 353 353 353 354 354 355 355 355 355 355 355 356 356 357 356 357 357 357 357 356 356 357 357 357 356 356 356 355 354 353 351 348 347 347 346 346 347 351 354 355 355 353 351 350 349 349 350 350 350 351 352 352 352 352 351 351 351 350 349 349 349 349 349 350 350 350 349 348 347 344 342 341 341
354 354 354 354 354 354 354 355 354 354 354 354 354 355 355 355 355 355 356 356 356 356 356 356 357 356 356 356 356 356 355 352 349 347 347 345 343 342 345 347 348 348 348 346 345 345 346 348 349 350 350 351 351 351 351 352 353 352 351 350 350 350 349 349 350 350 350 350 349 347 345 343 342 341
355 355 355 354 355 355 354 354 353 352 352 353 354 354 354 354 354 354 355 355 356 356 355 354 353 353 353 354 355 356 356 355 354 354 352 348 343 340 342 344 343 342 341 341 340 340 341 342 344 346 347 348 350 351 351 353 353 352 351 350 351 351 351 350 350 350 351 352 351 348 347 345 343 342
355 355 355 355 355 354 354 353 351 350 351 352 352 352 352 352 352 353 354 355 356 356 355 353 353 352 353 354 355 356 356 356 356 356 356 354 351 347 344 344 343 343 344 344 344 344 344 343 344 344 345 347 349 352 354 355 354 351 350 350 351 352 352 352 352 352 352 352 351 349 348 346 344 342
354 354 354 354 354 354 354 353 351 349 350 351 351 350 351 352 352 352 353 354 355 355 354 353 353 354 355 355 357 356 355 355 355 355 355 354 354 353 350 348 347 346 348 348 348 349 349 348 348 347 347 349 351 353 355 356 355 353 352 353 353 351 351 352 354 355 353 352 351 350 349 348 346 344
353 354 353 352 352 353 354 354 353 352 351 351 349 348 349 352 353 353 352 353 353 353 353 353 354 355 356 357 357 356 354 354 355 355 354 354 354 354 353 351 351 350 351 351 351 352 352 352 352 352 352 353 354 354 354 355 356 355 355 356 354 351 350 351 353 355 355 354 352 352 351 349 348 346
346 348 349 348 349 350 352 353 354 354 353 352 349 347 348 350 351 352 353 354 353 354 354 354 354 356 357 357 356 355 355 355 355 355 355 355 355 354 354 353 353 353 353 353 353 353 354 354 354 355 355 355 357 356 354 354 354 355 356 356 354 351 350 351 352 354 355 354 353 352 350 348 347 347
340 341 342 342 342 344 346 349 352 353 352 351 349 348 348 347 347 348 350 352 353 354 354 354 354 355 356 356 355 355 354 354 354 354 354 354 355 355 355 355 354 353 354 354 354 354 355 355 356 357 357 358 358 358 357 356 356 356 356 356 355 353 352 353 353 354 354 353 352 350 349 346 345 346
341 342 343 342 341 341 342 344 346 347 348 349 349 348 347 347 347 348 347 347 348 350 352 353 354 354 355 355 354 354 354 354 353 353 353 353 354 355 356 353 348 346 349 351 352 353 355 355 356 357 358 357 357 358 357 358 358 357 355 355 355 354 354 354 354 353 352 352 351 349 348 347 347 347
338 341 344 344 344 344 344 343 344 345 347 350 352 352 352 353 353 353 352 349 348 350 353 355 356 356 356 355 355 355 355 354 354 354 353 353 353 354 355 352 347 345 347 348 349 352 354 353 353 354 355 355 357 358 358 358 358 356 356 356 356 355 355 355 354 354 353 352 351 350 349 349 348 348
333 339 344 346 346 347 347 347 347 348 349 351 353 354 355 356 356 356 356 355 354 356 358 358 359 359 357 356 355 355 355 355 355 354 354 353 354 354 353 353 351 350 352 353 353 353 354 354 353 353 354 356 357 357 356 356 354 353 354 356 357 357 357 356 355 355 354 353 352 351 350 350 349 348
330 337 343 346 346 346 347 348 349 350 350 351 352 354 356 356 357 357 358 358 358 359 360 359 359 359 358 357 356 356 355 355 354 352 352 352 353 351 349 347 348 351 352 353 354 354 353 354 355 355 355 357 357 357 356 355 352 349 350 353 356 357 358 358 357 357 356 355 354 352 351 350 349 349
327 331 337 342 345 346 346 346 347 349 350 351 352 354 355 357 357 358 359 359 360 360 359 358 359 359 358 357 357 356 355 354 353 352 352 352 350 346 341 340 344 349 352 353 354 355 353 353 355 355 355 356 357 357 357 355 353 352 353 354 355 357 358 359 358 357 357 356 355 354 353 351 350 350
326 327 329 334 338 343 345 346 346 347 348 350 351 353 354 355 355 356 357 357 358 358 358 358 358 358 357 356 356 355 355 355 352 351 351 350 347 340 336 338 344 350 353 354 355 355 355 354 355 356 356 355 356 356 356 354 352 354 355 356 356 357 358 359 358 357 357 356 356 355 355 353 351 350
326 326 326 327 329 333 338 343 345 346 347 347 348 350 351 352 352 353 354 355 356 356 357 358 358 357 357 357 357 356 356 356 355 355 354 353 347 341 340 344 349 353 355 356 356 356 356 356 357 356 356 356 356 356 356 354 352 352 355 356 356 355 356 357 358 357 356 356 356 356 356 354 353 352
325 325 326 326 326 327 330 334 338 341 343 345 346 346 347 348 349 351 351 352 354 355 356 356 356 357 356 356 357 357 357 357 357 357 356 354 350 348 350 352 354 355 357 357 357 358 358 358 357 357 357 357 357 357 356 355 354 353 354 356 355 354 355 357 358 357 357 356 356 355 355 355 355 354
Wind_Speed
9 8 8 10 11 13 11 7 6 8 8 6 8 10 9 7 4 4 6 9 8 6 6 10 11 7 7 8 6 7 10 11 11 13 14 15 13 11 11 12 13 15 17 18 18 19 21 21 20 19 18 17 17 17 17 17 18 19 19 20 21 22 22 23 22 22 23 24 25 27 27 25 23 21
10 9 7 7 9 12 14 11 8 10 11 10 11 12 11 9 6 6 6 7 8 5 1 2 5 6 7 6 6 8 9 11 12 13 15 15 13 11 12 13 13 14 17 18 18 18 20 21 20 20 18 18 19 19 18 18 18 19 20 20 21 21 22 23 23 22 22 23 25 26 27 26 23 21
11 11 9 7 7 9 12 12 10 10 11 10 10 11 12 11 9 9 9 8 8 8 3 2 2 4 5 3 6 9 10 12 13 13 15 16 13 11 13 13 13 14 17 18 17 17 20 21 20 19 18 18 20 21 20 19 19 20 20 20 21 21 22 22 23 22 22 23 24 26 27 26 23 21
11 11 11 10 9 8 10 11 10 9 8 8 8 9 11 12 11 10 12 12 10 10 8 6 4 2 2 2 6 10 12 13 14 14 15 15 13 12 13 14 14 15 17 17 16 17 19 20 20 19 18 18 20 22 22 21 20 20 20 20 21 21 21 22 23 23 22 23 23 25 26 26 23 21
10 9 9 10 12 12 12 11 11 10 8 7 6 6 9 12 12 11 13 15 15 13 12 12 10 9 8 8 9 11 13 14 14 15 15 13 12 13 15 15 15 16 16 15 16 17 18 19 20 19 17 18 20 21 23 23 21 20 20 20 21 21 21 22 23 23 22 22 23 24 25 25 23 21
10 9 9 10 11 13 13 12 12 13 11 9 6 5 7 8 9 10 11 13 15 16 15 15 15 15 14 13 13 12 13 13 15 17 15 13 14 15 15 16 15 15 15 14 16 16 16 17 19 18 17 18 19 21 22 23 21 20 21 21 21 21 21 21 22 23 22 22 22 23 24 25 23 20
10 11 12 11 11 11 11 10 11 13 14 13 10 7 9 9 9 10 11 12 13 14 15 15 16 16 15 15 15 14 13 14 17 18 15 14 15 15 16 16 16 15 14 14 15 15 15 17 17 17 17 18 19 20 21 22 21 20 21 22 22 22 21 21 22 22 22 21 21 22 23 24 23 20
11 12 13 13 12 11 10 10 10 10 12 14 14 12 11 11 11 10 10 12 12 13 15 16 15 15 15 15 15 15 15 16 17 16 14 14 15 15 15 16 16 14 13 14 14 14 15 17 16 16 17 18 19 20 21 22 21 19 20 22 23 23 22 21 21 22 22 21 20 20 21 23 23 21
13 13 13 14 14 13 12 11 11 10 10 11 14 17 15 13 11 10 11 13 14 14 17 19 17 15 15 16 16 15 16 17 17 15 15 16 16 14 14 14 14 14 15 16 17 17 17 17 17 17 18 19 20 20 21 21 21 19 19 21 23 24 23 21 21 21 21 21 20 19 20 22 23 21
13 14 14 13 13 13 13 12 12 12 11 11 13 16 19 18 14 12 12 14 15 17 20 22 21 18 17 17 17 16 15 16 16 16 17 17 15 14 14 14 15 15 17 19 19 19 19 18 18 19 20 21 21 21 21 21 20 18 18 19 22 24 24 22 21 21 21 21 20 19 19 20 22 21
14 14 14 13 13 13 13 13 12 12 13 13 13 13 16 19 19 18 17 17 19 20 22 24 24 22 20 20 19 17 16 15 16 17 20 19 15 14 16 16 16 18 20 22 22 22 21 20 19 20 21 23 23 23 22 20 18 17 18 19 20 23 24 22 22 22 20 21 21 19 18 18 20 21
16 15 15 15 14 13 13 12 12 12 12 13 14 14 14 16 19 21 22 22 22 22 22 22 22 22 21 21 21 20 17 16 16 16 19 21 19 17 17 17 18 19 21 24 24 24 23 21 20 20 22 23 24 24 21 18 16 17 18 19 19 21 23 22 22 22 21 20 21 20 18 17 18 20
17 16 16 15 15 14 13 12 11 11 10 11 13 14 14 15 16 18 20 22 22 22 22 22 22 23 23 23 22 22 20 19 18 16 17 20 20 19 18 18 18 20 23 25 26 25 23 21 20 21 22 22 22 22 19 15 15 17 19 19 19 20 22 22 22 23 21 20 20 20 19 17 17 19
18 17 16 15 14 14 14 15 15 14 13 14 14 14 14 15 16 17 18 19 19 20 22 22 23 24 25 25 24 24 23 22 20 18 18 21 22 22 21 20 19 20 23 26 28 27 23 21 21 22 22 20 19 19 17 14 14 17 19 20 19 19 21 21 22 23 21 19 19 19 19 18 16 18
20 18 18 17 16 15 15 17 18 17 17 16 15 15 15 15 16 17 18 19 19 20 21 21 21 23 24 24 23 24 23 22 20 17 17 20 22 21 21 22 22 22 24 28 30 28 23 22 24 24 22 19 17 17 16 14 14 16 19 20 19 19 20 21 21 23 22 19 18 18 19 18 16 17
22 21 21 20 19 18 18 17 17 18 18 18 18 18 17 17 17 17 18 19 20 21 22 23 23 23 24 24 23 23 24 23 21 18 18 20 22 22 23 26 27 27 28 29 30 28 25 23 24 24 21 17 16 17 17 15 14 16 18 19 19 19 19 20 21 22 21 20 18 18 18 17 16 16
24 24 23 23 22 21 21 20 20 20 19 19 20 20 21 21 21 20 20 19 20 21 23 25 25 25 25 26 25 24 24 25 25 24 24 24 25 27 28 31 31 30 29 29 29 30 28 25 24 23 19 16 16 18 17 16 15 16 17 18 18 18 18 18 20 21 21 20 19 18 17 17 15 15
27 27 26 25 24 23 22 22 22 22 21 20 21 21 22 23 23 23 23 22 22 22 23 25 26 25 25 26 25 24 25 27 28 28 29 29 29 31 32 33 33 32 30 30 30 31 30 26 25 24 20 16 17 19 18 17 17 16 17 17 17 17 17 17 18 19 20 20 20 18 17 16 15 14
27 28 28 28 27 25 24 23 22 23 23 24 24 24 25 25 25 25 25 25 25 25 26 27 28 26 25 25 25 24 25 27 28 29 31 32 33 34 35 36 35 33 31 30 31 33 33 29 27 27 22 18 18 19 19 19 19 17 16 15 15 15 16 16 17 18 19 20 20 19 18 17 15 13
25 27 28 29 29 28 28 27 26 25 24 25 26 26 27 27 27 28 28 28 28 29 30 30 30 29 28 26 25 24 23 24 24 26 30 32 33 35 37 37 36 34 31 30 31 34 34 31 30 29 25 21 21 21 20 21 20 18 16 15 15 15 15 16 17 18 19 20 20 20 18 17 15 14
26 26 27 29 30 31 31 30 29 28 27 27 28 29 29 30 31 32 32 31 31 32 33 33 32 32 30 29 28 26 24 23 22 23 27 29 28 31 35 36 35 34 32 31 32 35 35 32 31 31 27 24 24 23 22 22 21 19 18 17 16 16 16 17 17 18 19 19 20 21 19 17 15 13
31 30 28 29 30 32 33 32 32 31 31 31 32 33 33 34 35 36 35 34 34 35 35 35 35 34 33 32 31 29 27 25 22 23 27 27 26 29 32 33 34 35 33 29 30 34 35 32 31 30 28 27 26 24 24 23 22 20 19 19 18 18 18 19 18 18 19 19 19 20 20 17 15 13
36 35 33 32 32 33 33 34 34 35 35 36 37 37 37 38 40 39 37 36 36 36 37 37 37 37 36 35 34 33 31 28 26 26 28 27 28 30 33 33 34 36 35 30 29 33 34 33 31 29 26 27 27 25 24 23 21 21 20 20 20 20 21 21 20 19 19 19 19 20 19 16 15 14
37 37 37 36 36 35 35 35 35 36 37 39 40 40 41 42 42 40 39 39 37 36 37 37 37 38 37 37 37 36 34 32 31 30 30 30 30 31 33 34 35 37 37 32 31 35 35 34 33 30 27 27 28 27 26 24 22 23 24 22 22 22 23 22 21 20 20 19 19 19 18 16 15 14
36 37 38 38 37 37 36 35 35 34 35 38 40 42 43 43 42 40 41 41 39 38 38 36 36 37 38 38 39 38 38 37 35 33 33 32 32 32 34 35 35 37 36 31 29 32 34 31 31 30 28 29 29 29 29 28 27 28 27 26 25 25 25 23 22 22 21 19 18 18 18 17 15 15
38 37 37 37 37 36 36 35 34 34 33 34 37 41 43 44 43 43 43 43 42 42 41 40 39 38 38 38 39 40 40 40 38 36 35 34 34 34 34 34 33 34 34 29 24 25 28 27 26 26 27 28 28 29 30 31 32 30 29 29 29 27 26 24 24 23 22 20 19 18 17 17 16 15
38 37 36 36 36 36 36 36 36 35 34 33 34 36 37 39 41 42 42 43 43 43 43 43 43 41 39 38 39 39 40 39 38 36 35 35 35 36 36 35 34 34 34 31 25 24 26 28 27 27 28 29 29 29 31 32 32 32 32 32 31 29 28 27 26 24 23 22 20 19 17 17 16 16
36 36 36 35 35 36 37 37 36 36 36 35 34 34 34 34 35 37 38 39 41 42 43 44 45 44 41 39 39 39 39 38 37 36 35 34 34 35 37 37 37 36 35 32 29 28 29 30 30 29 30 31 32 33 33 33 33 34 34 34 33 32 30 29 27 25 24 23 23 21 19 17 16 16
34 35 35 35 35 36 37 38 39 39 39 38 38 37 37 36 37 37 38 38 39 41 43 44 44 44 42 40 38 37 36 36 36 37 36 35 35 35 35 36 37 38 37 35 34 33 33 34 34 33 32 33 34 35 35 35 35 35 35 35 34 33 31 30 29 27 25 25 25 23 20 18 17 16
34 35 35 35 36 36 37 38 39 40 40 40 41 42 42 42 42 42 42 41 40 41 42 42 42 41 39 38 36 34 33 34 36 37 37 37 37 37 36 37 38 40 39 39 38 37 37 37 37 36 36 37 37 37 37 38 37 37 37 36 35 34 32 32 31 29 28 27 26 24 21 20 19 18
33 34 36 37 38 38 37 38 38 39 40 40 42 43 45 46 47 47 46 45 43 42 41 41 41 40 38 37 37 36 35 35 35 35 35 37 38 39 38 39 42 44 44 44 44 43 42 42 41 40 40 40 41 41 40 40 40 39 38 37 36 35 34 32 32 31 30 28 26 25 24 23 23 21
29 32 34 36 37 38 38 38 38 39 39 39 40 42 45 46 47 48 47 46 45 44 43 41 40 39 38 38 39 39 39 39 37 36 35 36 37 37 38 41 44 45 45 46 46 45 44 44 44 44 44 44 44 43 42 42 42 41 39 37 37 37 36 34 33 33 31 29 29 28 28 27 26 24
28 30 31 33 34 35 37 38 38 38 38 38 38 39 41 42 42 43 44 45 46 45 45 43 42 41 40 39 39 39 39 40 40 39 39 38 37 35 36 40 44 45 44 45 45 44 44 43 43 43 44 44 43 42 42 42 43 42 40 38 38 38 37 36 34 33 31 31 32 31 31 30 30 28
29 30 30 31 31 32 34 36 37 37 38 38 38 36 34 33 33 34 36 39 40 42 44 45 43 42 41 40 39 38 37 37 36 36 37 38 38 36 35 38 41 42 42 44 45 44 43 43 42 42 42 43 43 42 42 43 44 43 41 39 39 38 37 36 36 34 33 33 32 33 33 34 33 31
32 32 33 34 32 31 32 33 35 36 37 37 37 35 31 28 29 31 32 32 33 34 37 40 40 40 40 39 37 36 36 36 34 33 33 35 36 35 33 34 37 39 40 43 45 44 43 43 42 41 42 42 42 44 45 44 44 44 44 42 40 38 36 36 36 36 35 34 33 34 35 36 36 34
33 34 35 36 36 34 33 33 34 35 36 36 36 35 34 32 32 32 31 30 31 33 35 36 38 38 38 36 35 35 35 34 33 32 32 33 34 33 32 32 34 35 38 42 44 44 44 44 43 42 43 43 43 46 49 46 43 43 44 43 41 39 37 37 37 38 37 36 36 36 36 36 37 36
30 31 32 35 36 37 37 36 36 37 39 39 37 37 37 37 35 34 33 33 34 36 37 39 40 40 39 38 38 36 35 33 32 32 32 32 32 32 31 31 32 33 36 40 43 44 45 46 45 43 43 41 42 47 51 47 43 42 42 42 42 41 39 38 39 39 39 38 38 37 37 37 36 35
28 28 28 31 33 34 36 38 38 39 40 40 39 38 37 35 32 30 29 30 34 36 37 38 40 40 40 40 39 38 36 34 32 31 32 31 32 33 32 30 29 30 31 34 37 40 42 43 43 43 43 42 44 49 50 46 43 43 43 42 43 42 41 41 41 41 40 40 40 38 38 38 36 35
27 26 25 26 28 29 31 34 36 37 38 38 38 37 35 32 30 27 25 26 30 33 33 33 34 34 34 35 35 35 34 33 31 31 31 32 34 36 37 35 33 32 32 33 35 37 40 41 40 40 41 43 45 46 45 43 43 45 45 44 43 42 41 42 42 41 40 40 39 38 39 39 39 37
26 23 21 21 22 23 25 28 30 32 33 34 35 34 33 31 29 28 26 25 26 29 29 29 29 29 30 31 30 29 30 30 29 28 30 33 36 37 37 38 39 39 39 41 43 45 47 47 44 39 37 39 41 41 40 42 44 46 46 46 46 45 44 44 43 43 43 41 39 39 39 40 40 40
25 23 20 18 17 17 19 20 22 23 25 27 28 30 31 30 29 29 29 28 28 28 29 29 28 29 30 30 30 30 30 29 29 28 30 32 32 31 33 38 41 43 44 47 48 48 48 47 45 42 37 35 35 35 37 41 45 47 47 47 47 47 47 45 44 44 45 43 41 40 40 39 40 40
25 26 25 24 22 20 18 17 17 17 17 18 19 21 23 25 25 25 25 25 25 26 28 28 28 29 30 30 30 30 29 28 27 27 28 27 26 29 37 43 44 44 46 50 52 52 49 46 45 44 40 37 35 34 36 40 45 48 49 48 48 48 47 46 45 44 43 43 43 42 41 40 40 42
25 26 28 29 29 28 26 24 22 22 21 21 21 22 22 24 25 25 23 22 22 24 27 28 29 29 29 29 28 27 26 27 27 27 26 25 27 35 44 48 45 44 47 51 54 54 51 48 46 44 41 39 38 37 38 40 43 47 50 50 49 48 48 47 46 43 41 43 44 44 43 42 42 43
25 27 28 30 31 33 33 33 32 30 29 27 26 25 24 23 23 23 22 21 22 25 27 29 30 29 27 26 26 25 26 27 28 29 30 30 31 36 41 44 43 44 48 52 54 54 52 50 47 44 42 41 40 39 40 42 44 46 48 50 50 50 49 49 48 45 43 44 46 46 45 45 45 44
27 28 28 30 31 32 34 36 37 37 36 34 32 30 27 25 24 23 21 21 23 25 26 27 28 27 25 24 25 26 27 28 29 30 32 33 33 34 36 38 39 40 44 47 50 51 50 47 46 45 44 42 41 41 42 43 43 43 45 48 51 52 51 51 49 47 46 47 48 47 46 47 46 46
Wind_Direction
199 189 201 208 201 205 210 207 220 228 221 225 245 258 268 274 278 272 248 227 220 224 241 260 270 288 326 330 332 342 340 341 349 346 341 346 352 353 360 3 359 357 356 352 351 356 359 359 2 5 7 7 7 7 8 9 9 10 12 12 10 8 7 6 6 5 2 2 4 9 12 12 14 18
201 197 205 216 209 208 215 221 234 240 236 235 242 251 258 257 259 271 267 250 236 230 185 225 262 317 347 338 334 332 325 328 334 331 329 337 347 353 355 354 348 346 347 345 344 349 354 355 357 1 4 6 6 6 5 6 7 8 10 11 9 7 6 5 5 5 3 2 3 8 12 14 15 18
206 204 204 215 222 221 223 222 228 242 245 249 253 252 251 248 249 256 262 262 238 227 245 166 179 343 353 341 325 318 315 319 321 320 322 329 340 348 349 345 338 338 341 340 339 343 349 350 352 357 2 4 3 3 3 3 4 6 8 9 8 7 5 4 4 5 3 1 2 6 11 14 15 18
209 208 206 209 217 232 233 219 217 232 247 261 266 253 240 237 245 252 256 261 244 228 255 262 220 268 292 271 303 306 304 307 310 315 318 324 333 338 339 337 332 332 335 335 335 339 343 344 345 351 358 1 1 1 1 360 0 3 5 7 7 6 5 4 4 5 3 1 1 5 10 14 15 17
208 210 219 218 216 226 239 232 220 223 237 261 269 252 240 241 251 258 253 256 255 245 253 263 260 263 265 265 279 288 291 296 305 311 314 321 328 330 331 327 322 325 329 330 331 333 337 338 338 344 352 357 358 358 359 358 357 359 3 5 6 6 6 5 4 5 3 1 360 2 8 13 15 17
213 211 228 237 231 232 242 244 231 218 220 239 256 263 269 270 278 284 269 256 258 257 256 261 266 270 272 270 271 278 286 294 300 303 309 320 325 327 329 324 321 323 325 324 324 326 330 332 334 339 345 351 353 353 354 355 355 357 1 4 5 5 7 7 5 4 3 1 359 0 5 11 14 16
228 222 227 238 245 246 246 247 240 227 222 227 233 248 271 278 285 295 287 268 263 268 269 269 270 272 274 271 272 280 290 295 298 300 306 317 321 320 320 322 326 328 324 322 323 324 327 329 331 335 340 345 348 347 347 349 351 353 358 2 3 4 6 8 7 4 3 1 358 358 2 8 12 15
238 234 234 239 248 255 254 251 245 237 233 229 224 228 246 259 266 275 279 273 272 277 279 278 277 275 275 273 273 280 289 295 299 302 307 317 320 316 312 314 321 328 330 329 331 330 329 330 331 332 335 339 341 341 341 343 346 347 351 357 0 1 3 8 8 4 3 1 358 356 359 4 10 13
243 241 241 244 249 255 257 256 250 245 247 240 227 224 228 238 253 263 266 267 268 271 275 279 282 280 276 275 273 278 291 299 301 305 312 319 322 319 316 317 320 325 331 332 336 336 331 330 331 328 329 331 334 336 336 337 340 342 344 350 356 358 359 4 7 4 2 0 357 355 357 1 7 11
246 246 247 248 251 255 255 255 254 250 254 256 245 232 227 231 240 250 256 258 259 263 270 277 283 283 281 280 277 280 294 300 300 306 315 321 324 320 317 321 326 326 327 330 334 334 330 327 325 322 321 322 325 328 329 331 335 337 339 344 351 355 355 359 3 3 1 358 355 354 355 358 3 8
256 255 256 256 255 257 258 257 257 255 254 258 257 246 234 233 236 240 244 247 253 259 264 270 275 277 280 282 281 285 293 293 296 307 313 315 320 318 309 312 321 323 323 326 329 329 327 323 319 315 312 314 318 321 322 326 331 334 335 339 345 350 352 354 358 360 359 356 353 352 353 355 360 4
260 260 261 261 260 260 263 261 261 263 263 262 262 259 251 243 241 241 243 246 252 259 264 268 272 276 279 281 284 290 293 291 296 307 308 304 307 310 305 303 310 314 316 320 324 324 323 320 317 313 310 313 317 317 317 321 327 328 329 332 338 344 348 351 354 355 356 355 352 350 350 351 356 1
258 259 260 262 262 263 267 272 273 275 277 277 275 273 267 260 254 250 249 250 253 257 262 267 272 276 280 282 285 289 290 290 294 300 299 298 302 307 303 298 301 304 309 315 318 318 317 317 316 315 315 317 317 315 313 318 324 322 321 325 331 336 342 346 349 351 353 354 351 348 347 347 352 359
259 260 261 263 264 263 264 270 275 279 282 283 284 284 281 276 271 267 263 261 261 262 263 266 270 273 277 281 284 287 289 291 294 296 295 295 298 300 298 295 296 299 303 309 311 312 313 314 315 317 318 317 313 311 312 316 321 317 314 317 323 329 335 340 345 349 350 351 350 347 345 344 348 355
257 257 257 259 261 262 262 264 268 272 275 277 278 280 281 280 278 276 275 274 273 272 272 273 275 275 278 282 284 285 289 292 293 294 293 292 292 293 293 294 296 298 302 304 304 306 312 314 315 316 315 312 307 307 311 316 318 314 310 311 316 322 329 335 341 346 348 348 348 346 344 342 344 350
255 253 252 252 253 254 256 261 268 272 274 275 276 277 278 279 279 278 277 277 277 276 277 278 279 280 282 284 285 287 290 290 288 284 281 280 281 284 288 291 294 297 300 300 299 302 309 313 314 314 311 307 303 305 310 312 312 310 307 307 311 317 324 330 337 343 347 348 345 343 342 341 341 345
254 253 253 253 252 251 249 250 256 263 268 271 273 275 276 276 275 274 274 276 276 276 277 277 279 283 286 286 289 292 291 289 286 281 277 277 278 281 285 289 293 296 298 297 295 297 304 310 310 309 310 307 302 304 309 310 308 307 306 307 310 314 319 327 333 339 346 348 345 341 340 340 340 342
254 254 255 256 256 256 253 249 247 250 256 261 265 268 270 270 271 271 272 271 272 273 274 276 281 286 288 289 292 295 291 288 286 284 283 283 283 284 287 289 291 294 296 296 293 293 300 307 305 305 311 311 303 304 308 309 307 306 305 306 309 311 316 323 329 336 341 344 344 341 338 337 337 338
256 256 255 257 258 259 260 258 255 253 255 258 261 263 264 266 267 267 267 267 269 271 274 277 282 285 288 289 292 293 291 287 285 285 284 284 284 285 287 287 288 291 295 296 291 290 297 303 301 303 309 308 302 302 304 305 306 305 303 304 305 307 311 317 324 331 335 337 340 340 337 334 334 334
258 257 256 255 257 258 260 262 262 262 261 261 263 265 265 267 267 266 267 268 269 272 275 278 281 284 286 288 289 291 290 287 287 285 282 281 281 282 284 285 287 291 296 296 292 289 295 301 300 301 305 302 298 299 298 299 302 301 301 302 304 304 306 311 318 324 328 329 333 337 336 331 330 329
256 257 257 256 255 256 258 260 260 261 261 262 263 265 267 268 269 270 271 271 272 274 276 279 282 284 285 286 287 289 288 288 288 282 278 281 282 280 281 283 287 293 296 299 295 290 292 299 300 299 300 297 294 293 292 294 296 296 297 299 300 300 302 306 311 315 320 323 327 333 335 329 325 325
255 256 257 258 258 258 258 259 259 258 258 258 259 261 264 266 268 271 273 273 275 277 279 281 283 284 286 286 286 287 286 286 285 278 278 284 285 279 279 282 288 291 295 299 296 290 291 298 298 297 297 293 289 289 289 289 289 290 293 294 293 296 299 302 305 308 312 316 320 328 333 327 321 321
255 256 257 258 259 261 262 261 260 259 258 258 260 262 262 263 266 271 272 271 274 277 278 280 282 283 285 286 285 284 283 282 279 276 278 282 280 277 280 283 284 285 289 297 297 290 292 296 295 293 292 289 288 288 286 284 285 287 290 288 288 292 296 297 299 301 305 308 313 322 329 326 319 318
255 256 258 259 261 263 265 264 263 261 259 260 261 262 262 263 267 271 271 269 271 274 274 276 278 279 281 282 281 281 280 279 277 277 277 277 275 275 279 281 280 280 285 293 294 289 290 293 292 291 287 283 283 285 283 282 283 285 286 285 285 289 292 293 295 296 298 301 306 315 323 323 319 317
258 258 258 261 263 265 265 266 265 263 261 260 261 261 261 264 269 273 272 272 273 273 273 274 274 275 276 277 277 278 279 279 279 278 278 278 276 275 276 278 279 280 285 293 294 289 289 290 290 289 284 278 277 278 279 280 282 283 284 283 284 286 288 289 291 292 293 294 298 307 316 318 318 317
259 260 261 263 265 266 266 267 267 266 264 262 260 259 260 263 267 270 272 274 275 274 274 273 272 271 272 273 274 276 277 278 279 279 280 280 279 279 279 280 279 280 286 294 295 288 286 285 284 284 280 277 275 275 275 278 281 282 281 280 283 286 286 286 287 288 290 290 291 297 304 310 315 317
259 260 261 264 266 266 267 269 271 272 271 268 265 263 262 263 264 265 267 269 270 272 273 272 271 270 269 270 272 274 275 276 277 278 279 281 282 281 281 281 281 283 288 292 291 285 282 281 281 279 277 276 275 273 272 276 280 281 281 282 284 285 284 284 285 285 285 284 284 288 292 298 308 313
259 258 259 261 263 264 265 266 269 272 273 272 271 271 270 267 264 263 263 265 266 266 267 267 269 269 269 269 271 273 275 277 276 275 275 277 280 283 284 283 282 282 284 285 284 282 281 280 281 281 278 275 272 271 272 275 278 281 283 284 283 283 283 284 283 282 280 279 279 281 283 288 296 304
261 260 259 260 261 262 263 264 266 267 269 269 270 271 270 269 266 264 264 264 265 264 264 263 264 266 268 271 274 277 279 279 277 275 273 271 271 274 278 281 282 281 281 280 279 279 278 278 279 280 279 276 272 270 272 275 277 280 282 282 282 284 284 283 282 280 277 276 277 279 279 280 284 291
262 261 261 260 260 261 263 264 265 266 267 268 268 268 267 267 267 266 266 265 265 264 265 264 263 265 270 274 278 281 280 279 278 278 278 276 272 269 267 269 271 273 275 276 277 277 276 276 277 278 278 277 274 273 274 275 277 279 281 281 281 282 282 281 281 278 276 276 279 280 277 273 274 280
263 263 262 262 261 261 261 262 265 267 269 269 269 269 268 267 267 266 265 266 266 264 265 265 266 269 272 274 276 278 279 279 281 281 282 282 282 280 275 269 267 268 270 271 273 274 274 274 274 275 276 276 275 276 277 276 276 278 279 279 278 277 280 282 281 279 278 278 278 277 272 269 271 274
259 259 261 262 262 262 262 263 265 267 268 269 270 272 272 272 271 268 265 263 263 262 263 264 265 269 271 273 275 277 279 281 283 283 282 282 284 286 284 279 277 276 275 274 275 275 274 273 273 273 273 273 274 275 276 275 275 276 277 277 277 277 277 278 278 279 279 276 273 272 271 271 272 272
256 256 257 259 261 262 263 264 265 268 270 270 271 274 278 279 277 272 266 261 259 260 262 264 265 267 270 272 275 277 279 282 285 285 283 282 282 283 282 281 282 282 280 280 281 280 279 277 276 275 274 273 273 273 272 271 272 274 274 275 276 276 275 275 275 276 274 272 271 271 271 271 271 271
263 262 262 262 262 263 265 266 267 269 272 271 270 275 282 285 281 276 271 266 263 263 263 264 266 267 269 272 274 276 279 283 286 288 287 285 283 282 281 282 283 283 282 282 283 283 282 282 281 279 277 274 273 271 269 267 269 272 273 272 273 274 275 275 273 271 269 269 271 272 272 272 272 271
263 265 268 269 268 267 267 268 270 272 273 272 271 273 278 284 284 282 278 276 275 273 270 268 267 267 269 272 274 276 279 282 285 288 291 290 287 285 284 286 286 285 285 284 284 284 283 282 280 278 275 272 270 270 268 265 266 268 269 269 269 271 273 274 273 270 267 267 267 268 269 272 273 272
264 264 267 270 270 269 269 270 271 273 275 275 275 274 276 281 285 285 283 282 282 282 280 278 275 272 272 274 275 278 280 282 284 288 291 291 290 288 289 293 294 292 289 287 286 285 283 281 278 275 271 268 267 267 268 267 266 267 268 268 270 271 273 273 272 269 266 265 264 264 267 271 275 275
274 272 271 271 270 270 269 269 269 271 274 276 276 274 274 276 280 282 284 283 279 277 278 278 276 274 273 274 276 278 279 280 283 287 289 290 288 286 289 298 304 303 298 293 289 286 283 280 276 272 268 265 263 265 269 271 270 268 268 268 269 272 272 271 269 268 267 266 265 265 268 272 276 278
283 283 282 280 278 276 274 273 272 272 275 280 282 281 279 279 280 282 283 282 278 276 276 274 272 271 271 270 271 272 274 276 279 281 283 284 282 280 284 293 301 303 301 297 292 285 279 277 275 270 266 264 264 266 269 271 272 274 275 274 273 273 271 268 267 267 267 267 267 269 271 272 274 277
289 289 293 294 292 290 286 283 281 279 281 285 290 291 290 289 289 288 285 281 278 277 276 273 273 275 275 272 268 264 263 265 269 273 277 279 279 279 282 289 295 297 295 292 287 280 273 270 270 268 265 265 267 269 270 272 275 279 279 277 275 274 272 271 270 268 268 268 268 268 269 268 268 270
295 295 302 306 304 302 299 295 292 289 288 289 292 293 293 292 291 290 287 284 281 281 280 280 282 284 282 278 273 267 264 264 268 274 280 282 280 279 284 292 297 297 294 290 285 281 275 271 270 271 270 270 271 273 275 277 279 280 277 273 271 271 270 271 271 270 270 271 270 266 264 264 264 264
292 289 291 296 298 298 297 295 294 293 292 292 293 292 292 290 290 289 287 286 287 288 287 287 286 285 282 279 277 276 277 280 283 285 285 281 278 283 295 299 296 291 288 285 283 281 279 277 275 274 272 271 272 274 275 276 277 279 279 276 274 272 269 269 269 269 271 273 270 265 263 262 262 262
287 284 280 280 281 282 283 283 282 280 280 282 283 284 286 288 290 291 289 287 286 287 287 285 283 282 280 279 279 281 285 288 289 287 283 279 282 292 298 295 290 284 280 278 278 280 282 281 278 273 271 269 268 269 272 276 278 280 280 279 279 276 271 268 269 270 270 270 268 264 262 259 255 253
283 283 280 278 277 276 276 278 279 277 276 276 276 277 280 285 287 287 287 285 283 283 283 283 283 283 282 281 283 285 286 285 284 283 281 283 285 283 279 276 277 278 276 274 275 277 279 278 275 273 272 270 267 265 268 272 275 277 278 279 280 279 274 271 270 269 267 265 264 264 264 261 257 256
282 281 281 280 278 276 274 275 276 278 280 281 280 278 277 278 280 282 282 282 282 281 281 281 283 284 284 283 282 280 278 276 275 275 274 275 274 269 265 266 270 272 270 270 272 274 275 275 275 273 271 269 268 267 266 267 269 272 275 277 277 278 276 273 272 268 263 261 261 262 262 263 264 266
285 282 281 281 281 280 277 275 275 276 277 279 280 280 278 277 278 279 281 282 282 281 281 282 282 280 278 275 274 273 272 272 271 271 271 270 269 265 264 265 268 268 267 268 270 272 274 276 275 273 270 271 271 270 268 268 270 271 273 274 274 273 271 271 271 270 267 266 266 265 263 264 267 269